TVF8858 LFPO-DTTA

Flight info

Callsign TVF8858
Flight time 1h 58m
Altitude 35000
Route LATRA DCT LAMUT DCT UTUVA DCT TITVA DCT NOQAS DCT OTROT DCT RETNO DCT KOLON DCT LOKDU DCT PELOS DCT IPROM DCT CAR/N0399F190 P161 MEDAR
Aircraft B738/M-SDE2E3FGHIRWXY/LB1

Departure

Time 2026-04-30 18:09
Airport Paris-Orly Airport (LFPO)

Arrival

Time 2026-04-30 20:07
Airport Tunis Carthage International Airport (DTTA)
Time Latitude Longitude Altitude Speed Heading
2026-04-30 17:39 48.72416 2.36567 285 ft 0 kts 157°
2026-04-30 17:59 48.72451 2.36544 285 ft 2 kts 157°
2026-04-30 18:00 48.72485 2.36567 285 ft 0 kts 255°
2026-04-30 18:03 48.72475 2.36514 285 ft 4 kts 255°
2026-04-30 18:04 48.72420 2.36214 282 ft 9 kts 253°
2026-04-30 18:05 48.72356 2.35869 280 ft 11 kts 255°
2026-04-30 18:06 48.72197 2.35587 280 ft 7 kts 158°
2026-04-30 18:07 48.71986 2.35858 282 ft 7 kts 127°
2026-04-30 18:08 48.71957 2.35943 282 ft 0 kts 73°
2026-04-30 18:09 48.72654 2.39757 1020 ft 173 kts 77°
2026-04-30 18:10 48.73907 2.46632 3815 ft 190 kts 77°
2026-04-30 18:11 48.74308 2.55892 5921 ft 251 kts 91°
2026-04-30 18:11 48.70973 2.61668 8043 ft 274 kts 163°
2026-04-30 18:12 48.65209 2.62582 10418 ft 286 kts 178°
2026-04-30 18:13 48.61211 2.60832 11335 ft 321 kts 204°
2026-04-30 18:13 48.55647 2.56299 12429 ft 362 kts 205°
2026-04-30 18:14 48.50184 2.52005 13236 ft 399 kts 205°
2026-04-30 18:15 48.42430 2.46867 15151 ft 414 kts 195°
2026-04-30 18:15 48.34047 2.43216 17132 ft 423 kts 192°
2026-04-30 18:16 48.28225 2.42259 18383 ft 423 kts 175°
2026-04-30 18:16 48.22476 2.43891 19587 ft 424 kts 160°
2026-04-30 18:17 48.19690 2.45273 20203 ft 426 kts 158°
2026-04-30 18:17 48.16903 2.46782 20764 ft 429 kts 157°
2026-04-30 18:17 48.11264 2.49925 21901 ft 435 kts 157°
2026-04-30 18:18 48.08427 2.51488 22443 ft 438 kts 157°
2026-04-30 18:18 48.05576 2.53011 22954 ft 442 kts 158°
2026-04-30 18:18 48.02644 2.54507 23533 ft 443 kts 159°
2026-04-30 18:18 47.99741 2.55951 23997 ft 447 kts 159°
2026-04-30 18:19 47.96794 2.57399 24443 ft 451 kts 159°
2026-04-30 18:19 47.93781 2.58873 24852 ft 456 kts 159°
2026-04-30 18:19 47.90763 2.60345 25287 ft 460 kts 159°
2026-04-30 18:19 47.87737 2.61822 25739 ft 463 kts 159°
2026-04-30 18:20 47.84656 2.63323 26475 ft 459 kts 159°
2026-04-30 18:20 47.81657 2.64784 27167 ft 457 kts 159°
2026-04-30 18:20 47.78601 2.66272 27741 ft 456 kts 160°
2026-04-30 18:20 47.75599 2.67735 28285 ft 456 kts 160°
2026-04-30 18:21 47.72591 2.69200 28798 ft 456 kts 160°
2026-04-30 18:21 47.69590 2.70661 29299 ft 456 kts 160°
2026-04-30 18:21 47.66595 2.72118 29871 ft 454 kts 160°
2026-04-30 18:21 47.63587 2.73579 30359 ft 454 kts 160°
2026-04-30 18:22 47.60584 2.75036 30828 ft 454 kts 160°
2026-04-30 18:22 47.54632 2.77920 31769 ft 451 kts 160°
2026-04-30 18:22 47.51659 2.79357 32215 ft 450 kts 160°
2026-04-30 18:23 47.48666 2.80803 32642 ft 450 kts 160°
2026-04-30 18:23 47.45718 2.82226 33055 ft 449 kts 160°
2026-04-30 18:23 47.42781 2.83641 33465 ft 448 kts 160°
2026-04-30 18:23 47.39817 2.85068 33853 ft 447 kts 160°
2026-04-30 18:24 47.33920 2.87902 34594 ft 446 kts 160°
2026-04-30 18:24 47.30973 2.89316 34860 ft 446 kts 160°
2026-04-30 18:24 47.28051 2.90715 35086 ft 447 kts 160°
2026-04-30 18:25 47.25056 2.92149 35107 ft 450 kts 160°
2026-04-30 18:25 47.16223 2.96365 35102 ft 446 kts 160°
2026-04-30 18:26 47.07317 3.00470 35104 ft 450 kts 162°
2026-04-30 18:27 46.98302 3.04134 35102 ft 450 kts 163°
2026-04-30 18:28 46.89257 3.07778 35097 ft 449 kts 163°
2026-04-30 18:28 46.80310 3.11412 35107 ft 447 kts 163°
2026-04-30 18:29 46.68350 3.16277 35105 ft 447 kts 163°
2026-04-30 18:30 46.56364 3.21137 35102 ft 448 kts 163°
2026-04-30 18:31 46.47398 3.24758 35105 ft 446 kts 163°
2026-04-30 18:32 46.38446 3.28361 35117 ft 447 kts 163°
2026-04-30 18:33 46.29473 3.31959 35118 ft 447 kts 163°
2026-04-30 18:33 46.20493 3.35548 35132 ft 447 kts 163°
2026-04-30 18:34 46.11545 3.39112 35126 ft 447 kts 164°
2026-04-30 18:35 46.05558 3.41490 35121 ft 446 kts 164°
2026-04-30 18:35 45.99581 3.43859 35123 ft 447 kts 164°
2026-04-30 18:36 45.90644 3.47417 35130 ft 445 kts 162°
2026-04-30 18:37 45.82191 3.52835 35132 ft 445 kts 149°
2026-04-30 18:37 45.76963 3.57633 35151 ft 445 kts 146°
2026-04-30 18:38 45.71826 3.62576 35148 ft 446 kts 146°
2026-04-30 18:38 45.66698 3.67483 35154 ft 445 kts 147°
2026-04-30 18:39 45.61541 3.72360 35157 ft 446 kts 147°
2026-04-30 18:39 45.56379 3.77203 35155 ft 446 kts 148°
2026-04-30 18:40 45.51178 3.82057 35166 ft 448 kts 148°
2026-04-30 18:40 45.45993 3.86881 35163 ft 450 kts 148°
2026-04-30 18:41 45.40734 3.91768 35166 ft 453 kts 147°
2026-04-30 18:41 45.35847 3.97393 35174 ft 457 kts 135°
2026-04-30 18:42 45.31780 4.04331 35164 ft 458 kts 128°
2026-04-30 18:42 45.26210 4.15348 35172 ft 461 kts 127°
2026-04-30 18:45 45.05031 4.55319 35175 ft 464 kts 132°
2026-04-30 18:46 45.00766 4.62096 35173 ft 463 kts 132°
2026-04-30 18:46 44.96513 4.68876 35159 ft 460 kts 132°
2026-04-30 18:47 44.92272 4.75687 35173 ft 464 kts 132°
2026-04-30 18:47 44.88055 4.82485 35160 ft 464 kts 132°
2026-04-30 18:48 44.83789 4.89367 35171 ft 466 kts 132°
2026-04-30 18:48 44.79536 4.96219 35160 ft 468 kts 132°
2026-04-30 18:49 44.75259 5.03097 35156 ft 466 kts 132°
2026-04-30 18:49 44.71008 5.09916 35156 ft 468 kts 132°
2026-04-30 18:50 44.66717 5.16781 35167 ft 469 kts 132°
2026-04-30 18:50 44.62393 5.23683 35182 ft 470 kts 132°
2026-04-30 18:51 44.58087 5.30539 35187 ft 472 kts 132°
2026-04-30 18:51 44.53766 5.37404 35201 ft 474 kts 131°
2026-04-30 18:52 44.49419 5.44290 35202 ft 474 kts 131°
2026-04-30 18:52 44.45055 5.51188 35202 ft 475 kts 131°
2026-04-30 18:53 44.40674 5.58097 35195 ft 475 kts 131°
2026-04-30 18:53 44.36454 5.65124 35199 ft 476 kts 127°
2026-04-30 18:54 44.32667 5.72708 35199 ft 476 kts 123°
2026-04-30 18:54 44.29026 5.80437 35201 ft 476 kts 123°
2026-04-30 18:55 44.25389 5.88112 35202 ft 474 kts 123°
2026-04-30 18:55 44.19900 5.99466 35206 ft 476 kts 124°
2026-04-30 18:56 44.14295 6.10911 35210 ft 477 kts 124°
2026-04-30 18:57 44.08702 6.22262 35210 ft 477 kts 124°
2026-04-30 18:57 44.04962 6.29826 35212 ft 477 kts 124°
2026-04-30 18:58 43.99332 6.41179 35219 ft 475 kts 124°
2026-04-30 18:59 43.93713 6.52462 35220 ft 476 kts 124°
2026-04-30 19:00 43.86165 6.67555 35218 ft 478 kts 124°
2026-04-30 19:01 43.78581 6.82643 35213 ft 480 kts 124°
2026-04-30 19:02 43.72630 6.93637 35223 ft 477 kts 134°
2026-04-30 19:02 43.67208 6.98826 35220 ft 480 kts 153°
2026-04-30 19:03 43.61176 7.02745 35215 ft 479 kts 157°
2026-04-30 19:04 43.48964 7.10209 35178 ft 481 kts 157°
2026-04-30 19:05 43.36779 7.17820 35176 ft 484 kts 157°
2026-04-30 19:06 43.24550 7.25513 35167 ft 485 kts 157°
2026-04-30 19:06 43.15348 7.31289 35165 ft 486 kts 157°
2026-04-30 19:07 43.06169 7.37033 35157 ft 487 kts 158°
2026-04-30 19:08 42.93850 7.44706 35149 ft 485 kts 158°
2026-04-30 19:09 42.84637 7.50424 35135 ft 486 kts 158°
2026-04-30 19:09 42.78446 7.54255 35141 ft 488 kts 158°
2026-04-30 19:10 42.66128 7.61855 35134 ft 488 kts 158°
2026-04-30 19:11 42.56855 7.67553 35124 ft 488 kts 159°
2026-04-30 19:12 42.50653 7.71352 35130 ft 490 kts 159°
2026-04-30 19:12 42.44496 7.75117 35123 ft 486 kts 159°
2026-04-30 19:13 42.32124 7.82658 35111 ft 490 kts 160°
2026-04-30 19:14 42.25904 7.86437 35112 ft 489 kts 160°
2026-04-30 19:14 42.19720 7.90185 35102 ft 490 kts 160°
2026-04-30 19:15 42.13494 7.93950 35096 ft 492 kts 160°
2026-04-30 19:15 42.04145 7.99589 35094 ft 491 kts 161°
2026-04-30 19:16 41.97855 8.02919 35089 ft 485 kts 169°
2026-04-30 19:17 41.88040 8.05234 35092 ft 477 kts 180°
2026-04-30 19:17 41.78109 8.06605 35091 ft 477 kts 180°
2026-04-30 19:18 41.68234 8.08038 35097 ft 479 kts 180°
2026-04-30 19:19 41.61635 8.09046 35091 ft 478 kts 180°
2026-04-30 19:19 41.51761 8.10585 35097 ft 477 kts 180°
2026-04-30 19:20 41.45147 8.11617 35094 ft 480 kts 180°
2026-04-30 19:21 41.35226 8.13169 35095 ft 481 kts 180°
2026-04-30 19:22 41.21930 8.15246 35093 ft 481 kts 179°
2026-04-30 19:22 41.12271 8.19086 35094 ft 497 kts 158°
2026-04-30 19:23 41.03222 8.25880 35157 ft 500 kts 157°
2026-04-30 19:24 40.93916 8.32204 35099 ft 500 kts 159°
2026-04-30 19:25 40.78412 8.42460 35104 ft 499 kts 159°
2026-04-30 19:26 40.66065 8.50647 35108 ft 500 kts 158°
2026-04-30 19:27 40.56777 8.56795 35113 ft 498 kts 159°
2026-04-30 19:28 40.47497 8.62919 35111 ft 498 kts 158°
2026-04-30 19:29 40.35188 8.71013 35114 ft 497 kts 159°
2026-04-30 19:30 40.22822 8.79111 35113 ft 498 kts 159°
2026-04-30 19:31 40.10466 8.87169 35106 ft 498 kts 159°
2026-04-30 19:31 40.01222 8.93179 35104 ft 496 kts 159°
2026-04-30 19:32 39.95065 8.97169 35107 ft 496 kts 159°
2026-04-30 19:32 39.88899 9.01157 35107 ft 496 kts 159°
2026-04-30 19:33 39.82738 9.05132 35114 ft 495 kts 159°
2026-04-30 19:33 39.76561 9.09111 35115 ft 495 kts 159°
2026-04-30 19:34 39.70444 9.13044 35112 ft 494 kts 159°
2026-04-30 19:35 39.61198 9.18974 35113 ft 494 kts 159°
2026-04-30 19:35 39.55056 9.22905 35119 ft 493 kts 159°
2026-04-30 19:36 39.48901 9.26833 35122 ft 493 kts 159°
2026-04-30 19:36 39.39699 9.32691 35112 ft 492 kts 159°
2026-04-30 19:37 39.33533 9.36612 35110 ft 492 kts 159°
2026-04-30 19:37 39.27410 9.40493 35106 ft 493 kts 159°
2026-04-30 19:38 39.21277 9.44375 35024 ft 493 kts 159°
2026-04-30 19:38 39.18198 9.46318 34649 ft 495 kts 159°
2026-04-30 19:38 39.15118 9.48263 34264 ft 491 kts 159°
2026-04-30 19:39 39.12058 9.50193 33904 ft 490 kts 159°
2026-04-30 19:39 39.09012 9.52158 33570 ft 493 kts 157°
2026-04-30 19:39 39.05968 9.54285 33236 ft 496 kts 155°
2026-04-30 19:39 39.02989 9.56479 32906 ft 498 kts 154°
2026-04-30 19:40 39.00004 9.58729 32574 ft 499 kts 153°
2026-04-30 19:40 38.97052 9.60968 32247 ft 498 kts 153°
2026-04-30 19:40 38.94057 9.63230 31914 ft 498 kts 154°
2026-04-30 19:40 38.91071 9.65468 31584 ft 498 kts 154°
2026-04-30 19:41 38.88051 9.67715 31250 ft 499 kts 155°
2026-04-30 19:41 38.85065 9.69923 30920 ft 499 kts 155°
2026-04-30 19:41 38.82056 9.72137 30590 ft 500 kts 155°
2026-04-30 19:41 38.79024 9.74360 30258 ft 501 kts 155°
2026-04-30 19:42 38.76030 9.76549 29929 ft 502 kts 155°
2026-04-30 19:42 38.72988 9.78769 29585 ft 501 kts 155°
2026-04-30 19:42 38.69954 9.80980 29245 ft 502 kts 155°
2026-04-30 19:42 38.66913 9.83194 28902 ft 504 kts 155°
2026-04-30 19:43 38.63844 9.85425 28558 ft 503 kts 155°
2026-04-30 19:43 38.60804 9.87634 28219 ft 504 kts 155°
2026-04-30 19:43 38.57776 9.89833 27882 ft 504 kts 154°
2026-04-30 19:44 38.51697 9.94240 27208 ft 505 kts 154°
2026-04-30 19:44 38.48640 9.96453 26868 ft 506 kts 154°
2026-04-30 19:44 38.45589 9.98660 26531 ft 506 kts 154°
2026-04-30 19:44 38.42490 10.00899 26192 ft 507 kts 154°
2026-04-30 19:45 38.39464 10.03084 25859 ft 507 kts 154°
2026-04-30 19:45 38.36395 10.05300 25518 ft 497 kts 154°
2026-04-30 19:45 38.33431 10.07441 25185 ft 490 kts 154°
2026-04-30 19:45 38.30454 10.09587 24846 ft 490 kts 154°
2026-04-30 19:46 38.27522 10.11696 24511 ft 489 kts 154°
2026-04-30 19:46 38.24563 10.13820 24177 ft 486 kts 154°
2026-04-30 19:46 38.21650 10.15911 23846 ft 483 kts 154°
2026-04-30 19:46 38.18698 10.18026 23512 ft 482 kts 154°
2026-04-30 19:47 38.15805 10.20097 23185 ft 480 kts 154°
2026-04-30 19:47 38.13873 10.21480 22967 ft 478 kts 154°
2026-04-30 19:47 38.10025 10.24228 22530 ft 475 kts 154°
2026-04-30 19:47 38.07114 10.26138 22206 ft 471 kts 158°
2026-04-30 19:48 38.04101 10.27628 21883 ft 463 kts 167°
2026-04-30 19:48 38.00991 10.28490 21559 ft 455 kts 176°
2026-04-30 19:48 37.97833 10.28771 21233 ft 449 kts 183°
2026-04-30 19:48 37.94743 10.28721 20913 ft 445 kts 186°
2026-04-30 19:49 37.91622 10.28522 20584 ft 442 kts 187°
2026-04-30 19:49 37.85538 10.28042 19943 ft 438 kts 187°
2026-04-30 19:49 37.82457 10.27811 19613 ft 436 kts 187°
2026-04-30 19:50 37.79455 10.27605 19295 ft 435 kts 187°
2026-04-30 19:50 37.76409 10.27413 18971 ft 433 kts 186°
2026-04-30 19:50 37.73434 10.27238 18651 ft 431 kts 186°
2026-04-30 19:50 37.70451 10.27072 18332 ft 429 kts 186°
2026-04-30 19:51 37.67456 10.26915 18010 ft 427 kts 186°
2026-04-30 19:51 37.64512 10.26767 17699 ft 424 kts 186°
2026-04-30 19:51 37.61577 10.26623 17386 ft 423 kts 186°
2026-04-30 19:51 37.58607 10.26481 17069 ft 421 kts 186°
2026-04-30 19:52 37.55719 10.26343 16762 ft 419 kts 186°
2026-04-30 19:52 37.52790 10.26205 16446 ft 419 kts 186°
2026-04-30 19:52 37.49907 10.26069 16137 ft 416 kts 186°
2026-04-30 19:52 37.47004 10.25935 15822 ft 415 kts 185°
2026-04-30 19:53 37.44130 10.25805 15387 ft 409 kts 185°
2026-04-30 19:53 37.41306 10.25677 14794 ft 404 kts 185°
2026-04-30 19:53 37.38568 10.25555 14563 ft 391 kts 185°
2026-04-30 19:53 37.35849 10.25434 14231 ft 387 kts 185°
2026-04-30 19:54 37.33199 10.25312 13693 ft 384 kts 185°
2026-04-30 19:54 37.30519 10.25187 13062 ft 383 kts 185°
2026-04-30 19:54 37.27864 10.25063 12412 ft 382 kts 185°
2026-04-30 19:54 37.25199 10.24938 11772 ft 381 kts 185°
2026-04-30 19:55 37.22577 10.24818 11333 ft 374 kts 185°
2026-04-30 19:55 37.20021 10.24704 11083 ft 364 kts 185°
2026-04-30 19:55 37.17530 10.24593 10937 ft 352 kts 185°
2026-04-30 19:55 37.15131 10.24487 10778 ft 339 kts 185°
2026-04-30 19:56 37.12830 10.24384 10622 ft 327 kts 185°
2026-04-30 19:56 37.10588 10.24282 10465 ft 312 kts 185°
2026-04-30 19:56 37.08482 10.24187 10327 ft 299 kts 185°
2026-04-30 19:56 37.06422 10.24091 10127 ft 294 kts 186°
2026-04-30 19:57 37.04366 10.23992 9777 ft 295 kts 185°
2026-04-30 19:57 37.02330 10.23896 9418 ft 292 kts 185°
2026-04-30 19:57 37.00304 10.23802 9064 ft 288 kts 185°
2026-04-30 19:57 36.98304 10.23710 8712 ft 286 kts 185°
2026-04-30 19:58 36.96323 10.23619 8362 ft 284 kts 185°
2026-04-30 19:58 36.94360 10.23529 8032 ft 283 kts 185°
2026-04-30 19:58 36.92382 10.23439 7733 ft 280 kts 184°
2026-04-30 19:58 36.90445 10.23351 7516 ft 280 kts 184°
2026-04-30 19:59 36.88484 10.23261 7181 ft 280 kts 184°
2026-04-30 19:59 36.86512 10.23172 6764 ft 279 kts 184°
2026-04-30 19:59 36.82733 10.22464 6084 ft 271 kts 195°
2026-04-30 20:00 36.80922 10.21872 5701 ft 269 kts 197°
2026-04-30 20:00 36.79100 10.21267 5213 ft 270 kts 196°
2026-04-30 20:00 36.77271 10.20676 4756 ft 270 kts 197°
2026-04-30 20:00 36.75643 10.19655 4512 ft 258 kts 226°
2026-04-30 20:01 36.74381 10.15857 4203 ft 230 kts 257°
2026-04-30 20:01 36.73839 10.14036 4094 ft 218 kts 247°
2026-04-30 20:01 36.73150 10.12430 4001 ft 204 kts 242°
2026-04-30 20:02 36.70874 10.11074 3571 ft 192 kts 158°
2026-04-30 20:02 36.69807 10.11992 3278 ft 186 kts 124°
2026-04-30 20:03 36.69486 10.14875 2712 ft 170 kts 63°
2026-04-30 20:03 36.70038 10.16171 2456 ft 167 kts 59°
2026-04-30 20:03 36.70593 10.17432 2187 ft 165 kts 58°
2026-04-30 20:03 36.71324 10.18449 2027 ft 155 kts 34°
2026-04-30 20:04 36.72257 10.19065 1888 ft 151 kts 22°
2026-04-30 20:04 36.73268 10.19459 1893 ft 153 kts 15°
2026-04-30 20:04 36.74309 10.19768 1898 ft 153 kts 14°
2026-04-30 20:05 36.76328 10.20322 1541 ft 138 kts 13°
2026-04-30 20:05 36.77262 10.20576 1377 ft 141 kts 13°
2026-04-30 20:05 36.79156 10.21090 975 ft 139 kts 13°
2026-04-30 20:06 36.80105 10.21346 791 ft 139 kts 12°
2026-04-30 20:06 36.81048 10.21600 606 ft 140 kts 13°
2026-04-30 20:06 36.82005 10.21864 420 ft 140 kts 11°
2026-04-30 20:06 36.82962 10.22116 231 ft 140 kts 12°
2026-04-30 20:07 36.83916 10.22378 54 ft 139 kts 11°
2026-04-30 20:07 36.84812 10.22619 12 ft 114 kts 11°
2026-04-30 20:07 36.85725 10.22868 15 ft 41 kts 12°
2026-04-30 20:08 36.85890 10.22912 18 ft 16 kts
2026-04-30 20:08 36.85992 10.22866 18 ft 15 kts 316°
2026-04-30 20:08 36.86026 10.22743 18 ft 15 kts 271°
2026-04-30 20:08 36.85978 10.22660 18 ft 12 kts 196°
2026-04-30 20:09 36.85894 10.22638 18 ft 12 kts 192°
2026-04-30 20:09 36.85787 10.22608 18 ft 17 kts 193°
2026-04-30 20:09 36.85556 10.22545 18 ft 16 kts 192°
2026-04-30 20:10 36.85343 10.22487 18 ft 15 kts 193°
2026-04-30 20:10 36.85241 10.22458 17 ft 15 kts 193°
2026-04-30 20:10 36.85137 10.22428 16 ft 15 kts 191°
2026-04-30 20:11 36.84930 10.22375 14 ft 14 kts 192°
2026-04-30 20:11 36.84873 10.22330 15 ft 7 kts 255°
2026-04-30 20:11 36.84876 10.22276 16 ft 4 kts 278°
2026-04-30 20:12 36.84883 10.22219 17 ft 2 kts 278°
2026-04-30 20:12 36.84884 10.22187 18 ft 5 kts 271°
2026-04-30 20:12 36.84886 10.22135 19 ft 6 kts 274°
2026-04-30 20:13 36.84890 10.22090 20 ft 3 kts 277°
2026-04-30 20:13 36.84893 10.22068 20 ft 0 kts 280°
2026-04-30 20:13 36.84894 10.22051 20 ft 5 kts 268°
2026-04-30 20:13 36.84871 10.22021 21 ft 5 kts 198°
2026-04-30 20:14 36.84843 10.21997 21 ft 4 kts 257°
2026-04-30 20:14 36.84846 10.21961 21 ft 3 kts 282°
2026-04-30 20:14 36.84851 10.21934 21 ft 0 kts 282°